Leesburg, VA

11:48 PM EDT on April 24, 2018 (GMT -0400)
Leesburg Executive

Weather History for KJYO - May, 2014

Change the Weather History Date:

Friday, May 16, 2014

  Actual Average (KIAD) Record (KIAD)
Temperature  
Mean Temperature 61 °F -  
Max Temperature 69 °F 73 °F 90 °F (1998)
Min Temperature 53 °F 49 °F 35 °F (2000)
Degree Days  
Heating Degree Days 4    
Growing Degree Days 11 (Base 50)    
Moisture  
Dew Point 54 °F    
Average Humidity 75    
Maximum Humidity 100    
Minimum Humidity 46    
Precipitation  
Precipitation 2.60 in - - ()
Sea Level Pressure  
Sea Level Pressure 29.88 in    
Wind  
Wind Speed 11 mph (NNW)    
Max Wind Speed 24 mph    
Max Gust Speed 31 mph    
Visibility 9 miles    
Events Rain    
Averages and records for this station are not official NWS values.
T = Trace of Precipitation, MM = Missing Value Source: NWS Daily Summary

Daily Weather History Graph

Daily Weather History Graph

Search for Another Location

Airport or City:

Astronomy

May. 16, 2014 Rise Set
Actual Time 5:56 AM EDT 8:17 PM EDT
Civil Twilight 5:26 AM EDT 8:47 PM EDT
Nautical Twilight 4:49 AM EDT 9:24 PM EDT
Astronomical Twilight 4:08 AM EDT 10:06 PM EDT
Moon 10:22 PM EDT (5/16) 7:36 AM EDT (5/16)
Length of Visible Light 15h 21m
Length of Day
14h 20m
Waning Gibbous, 95% of the Moon is Illuminated
May 16
Waning Gibbous
May 21
Last Quarter
May 28
New
Jun 5
First Quarter
Jun 13
Full

Hourly Weather History & Observations

Time (EDT) Temp. Dew Point Humidity Pressure Visibility Wind Dir Wind Speed Gust Speed Precip Events Conditions
12:15 AM 68.0 °F 68.0 °F 100% 29.90 in 7.0 mi SSE 6.9 mph - 0.05 in Rain Rain
12:55 AM 68.0 °F 68.0 °F 100% 29.86 in 5.0 mi SE 11.5 mph 18.4 mph 0.16 in Rain Heavy Rain
1:15 AM 68.0 °F 68.0 °F 100% 29.84 in 5.0 mi SSE 13.8 mph 23.0 mph 0.05 in Rain Rain
1:35 AM 69.8 °F 69.8 °F 100% 29.84 in 7.0 mi SSE 15.0 mph 26.5 mph 0.10 in Rain Rain
2:15 AM 69.8 °F 69.8 °F 100% 29.82 in 10.0 mi SSE 17.3 mph 24.2 mph 0.01 in Rain Light Rain
2:35 AM 69.8 °F 69.8 °F 100% 29.80 in 10.0 mi SSE 15.0 mph 26.5 mph 0.03 in Rain Rain
2:55 AM 69.8 °F 69.8 °F 100% 29.79 in 7.0 mi SSE 11.5 mph 24.2 mph 0.06 in Rain Rain
3:15 AM 69.8 °F 69.8 °F 100% 29.77 in 5.0 mi SSE 11.5 mph 17.3 mph 0.05 in Rain Heavy Rain
3:35 AM 69.8 °F 69.8 °F 100% 29.78 in 4.0 mi SSE 11.5 mph 19.6 mph 0.17 in Rain Heavy Rain
3:55 AM 59.0 °F 59.0 °F 100% 29.77 in 1.0 mi NW 24.2 mph 31.1 mph 0.84 in Rain Heavy Rain
4:15 AM 55.4 °F 55.4 °F 100% 29.83 in 1.8 mi NW 4.6 mph 10.4 mph 0.32 in Rain Heavy Rain
4:35 AM 55.4 °F 55.4 °F 100% 29.83 in 4.0 mi West 8.1 mph 18.4 mph 0.55 in Rain Heavy Rain
4:55 AM 55.4 °F 55.4 °F 100% 29.83 in 2.0 mi NW 17.3 mph 23.0 mph 0.85 in Rain Heavy Rain
5:15 AM 53.6 °F 53.6 °F 100% 29.82 in 1.8 mi NNW 17.3 mph 25.3 mph 0.32 in Rain Heavy Rain
5:35 AM 53.6 °F 53.6 °F 100% 29.83 in 2.5 mi NW 13.8 mph 21.9 mph 0.51 in Rain Heavy Rain
5:55 AM 53.6 °F 53.6 °F 100% 29.83 in 7.0 mi NW 12.7 mph 19.6 mph 0.59 in Rain Rain
6:15 AM 55.4 °F 55.4 °F 100% 29.85 in 10.0 mi NW 11.5 mph 18.4 mph N/A   Overcast
6:35 AM 55.4 °F 55.4 °F 100% 29.87 in 10.0 mi NNW 11.5 mph 17.3 mph N/A   Overcast
6:55 AM 55.4 °F 53.6 °F 94% 29.88 in 10.0 mi NNW 8.1 mph - N/A   Overcast
7:15 AM 55.4 °F 53.6 °F 94% 29.88 in 10.0 mi NW 12.7 mph 17.3 mph N/A   Overcast
7:35 AM 55.4 °F 53.6 °F 94% 29.88 in 10.0 mi NNW 10.4 mph - N/A   Overcast
7:55 AM 55.4 °F 53.6 °F 94% 29.88 in 10.0 mi NW 11.5 mph 16.1 mph N/A   Overcast
8:15 AM 55.4 °F 53.6 °F 94% 29.89 in 10.0 mi NNW 12.7 mph 18.4 mph N/A   Overcast
8:35 AM 55.4 °F 51.8 °F 88% 29.90 in 10.0 mi NNW 11.5 mph 19.6 mph N/A   Overcast
8:55 AM 55.4 °F 51.8 °F 88% 29.90 in 10.0 mi NNW 12.7 mph - N/A   Overcast
9:15 AM 57.2 °F 51.8 °F 82% 29.90 in 10.0 mi NNW 12.7 mph 20.7 mph N/A   Overcast
9:35 AM 57.2 °F 51.8 °F 82% 29.90 in 10.0 mi NNW 13.8 mph 18.4 mph N/A   Overcast
9:55 AM 59.0 °F 51.8 °F 77% 29.90 in 10.0 mi NNW 16.1 mph 24.2 mph N/A   Overcast
10:15 AM 59.0 °F 51.8 °F 77% 29.90 in 10.0 mi NNW 11.5 mph 24.2 mph N/A   Mostly Cloudy
10:35 AM 60.8 °F 51.8 °F 72% 29.90 in 10.0 mi NNW 19.6 mph 23.0 mph N/A   Mostly Cloudy
10:55 AM 62.6 °F 53.6 °F 72% 29.89 in 10.0 mi NNW 16.1 mph 21.9 mph N/A   Scattered Clouds
11:15 AM 62.6 °F 53.6 °F 72% 29.90 in 10.0 mi NNW 17.3 mph 21.9 mph N/A   Scattered Clouds
11:35 AM 62.6 °F 53.6 °F 72% 29.90 in 10.0 mi NW 10.4 mph 19.6 mph N/A   Scattered Clouds
11:55 AM 64.4 °F 53.6 °F 68% 29.90 in 10.0 mi NW 17.3 mph 20.7 mph N/A   Mostly Cloudy
12:15 PM 64.4 °F 51.8 °F 64% 29.89 in 10.0 mi North 17.3 mph 21.9 mph N/A   Mostly Cloudy
12:35 PM 64.4 °F 53.6 °F 68% 29.89 in 10.0 mi NNW 10.4 mph 17.3 mph N/A   Mostly Cloudy
12:55 PM 64.4 °F 53.6 °F 68% 29.89 in 10.0 mi NNW 16.1 mph - N/A   Mostly Cloudy
1:15 PM 64.4 °F 53.6 °F 68% 29.89 in 10.0 mi West 10.4 mph - N/A   Mostly Cloudy
1:35 PM 68.0 °F 53.6 °F 60% 29.89 in 10.0 mi NNW 8.1 mph 17.3 mph N/A   Scattered Clouds
1:55 PM 66.2 °F 53.6 °F 64% 29.88 in 10.0 mi North 9.2 mph - N/A   Mostly Cloudy
2:15 PM 68.0 °F 53.6 °F 60% 29.88 in 10.0 mi NNW 11.5 mph 16.1 mph N/A   Mostly Cloudy
2:35 PM 64.4 °F 51.8 °F 64% 29.88 in 10.0 mi NW 10.4 mph - N/A   Overcast
2:55 PM 68.0 °F 51.8 °F 56% 29.88 in 10.0 mi WNW 8.1 mph - N/A   Overcast
3:15 PM 66.2 °F 51.8 °F 60% 29.88 in 10.0 mi NW 9.2 mph - N/A   Overcast
3:35 PM 66.2 °F 51.8 °F 60% 29.87 in 10.0 mi WNW 4.6 mph - N/A   Mostly Cloudy
3:55 PM 69.8 °F 53.6 °F 56% 29.86 in 10.0 mi NW 5.8 mph - N/A   Scattered Clouds
4:15 PM 69.8 °F 53.6 °F 56% 29.86 in 10.0 mi NW 9.2 mph - N/A   Mostly Cloudy
4:35 PM 68.0 °F 51.8 °F 56% 29.87 in 10.0 mi NW 3.5 mph - N/A   Mostly Cloudy
4:55 PM 68.0 °F 50.0 °F 52% 29.86 in 10.0 mi WNW 6.9 mph - N/A   Scattered Clouds
5:15 PM 68.0 °F 50.0 °F 52% 29.87 in 10.0 mi North 5.8 mph - N/A   Mostly Cloudy
5:35 PM 68.0 °F 50.0 °F 52% 29.86 in 10.0 mi North 6.9 mph - N/A   Overcast
5:55 PM 69.8 °F 50.0 °F 49% 29.86 in 10.0 mi NW 9.2 mph - N/A   Overcast
6:15 PM 66.2 °F 48.2 °F 52% 29.87 in 10.0 mi NW 8.1 mph - N/A   Overcast
6:35 PM 68.0 °F 46.4 °F 46% 29.87 in 10.0 mi North 6.9 mph - N/A   Mostly Cloudy
6:55 PM 68.0 °F 46.4 °F 46% 29.88 in 10.0 mi NNW 6.9 mph - N/A   Mostly Cloudy
7:15 PM 66.2 °F 50.0 °F 56% 29.88 in 10.0 mi NNW 4.6 mph - N/A   Overcast
7:35 PM 66.2 °F 48.2 °F 52% 29.89 in 10.0 mi NNW 3.5 mph - N/A   Overcast
7:55 PM 64.4 °F 50.0 °F 59% 29.90 in 10.0 mi NNW 3.5 mph - N/A   Overcast
8:15 PM 64.4 °F 50.0 °F 59% 29.91 in 10.0 mi NNW 3.5 mph - N/A   Overcast
8:35 PM 62.6 °F 51.8 °F 68% 29.91 in 10.0 mi North 6.9 mph - N/A   Scattered Clouds
8:55 PM 62.6 °F 50.0 °F 63% 29.91 in 10.0 mi North 9.2 mph - N/A   Clear
9:15 PM 60.8 °F 50.0 °F 68% 29.92 in 10.0 mi North 9.2 mph - N/A   Clear
9:35 PM 60.8 °F 48.2 °F 63% 29.93 in 10.0 mi North 9.2 mph - N/A   Mostly Cloudy
9:55 PM 60.8 °F 46.4 °F 59% 29.95 in 10.0 mi North 6.9 mph - N/A   Overcast
10:15 PM 60.8 °F 46.4 °F 59% 29.95 in 10.0 mi North 6.9 mph - N/A   Overcast
10:35 PM 59.0 °F 46.4 °F 63% 29.96 in 10.0 mi North 6.9 mph - N/A   Overcast
10:55 PM 59.0 °F 46.4 °F 63% 29.97 in 10.0 mi North 10.4 mph - N/A   Overcast
11:15 PM 59.0 °F 46.4 °F 63% 29.97 in 10.0 mi North 8.1 mph - N/A   Overcast
11:35 PM 57.2 °F 44.6 °F 63% 29.97 in 10.0 mi North 6.9 mph - N/A   Overcast
11:55 PM 57.2 °F 44.6 °F 63% 29.98 in 10.0 mi NNW 6.9 mph - N/A   Overcast